カタログに戻る

SL-19 DEB

運用中UNKNOWN
NORAD 23486·DEBRIS·🇷🇺 Russia

打ち上げ Dec 26, 1994 から Baikonur Cosmodrome

Loading…

次のパス (今後24時間)

TLE

最新Source: Space-Track

元期: Sep 14, 2026, 05:05 UTC

1 23486U 94085J   26257.21221221  .00000220  00000-0  75039-2 0  9994
2 23486  64.9197 340.5856 0190597 223.4069 164.4436 11.25793544613165

AllMySatでSL-19 DEBをリアルタイム追跡

Download on the App Store